Location: Newark
(35.6833°N, 139.7500°E)
Time: 17:32:48
(UTC+00:00)

ISS - Visible Passes

Search period start: 01 October 2020 00:00
Search period end: 11 October 2020 00:00
Orbit: 419 x 421 km, 51.6° (Epoch: 02 October)

Date Brightness Start Highest point End Pass type
(mag) Time Alt. Az. Time Alt. Az. Time Alt. Az.
01 Oct -1.1 09:50:36 10° NNE 09:50:51 10° NNE 09:50:51 10° NNE visible
02 Oct -0.7 10:38:03 10° NNW 10:38:25 12° NNW 10:38:25 12° NNW visible
03 Oct -1.8 09:51:05 10° NNW 09:53:04 19° NNE 09:53:04 19° NNE visible
04 Oct -1.5 09:04:17 10° N 09:06:10 14° NNE 09:07:47 11° NE visible
04 Oct -0.8 10:40:01 10° NW 10:40:46 16° NW 10:40:46 16° NW visible
05 Oct -3.2 09:52:46 10° NW 09:55:34 46° N 09:55:34 46° N visible
06 Oct -2.7 09:05:39 10° NNW 09:08:41 31° NE 09:10:28 19° E visible
06 Oct -0.6 10:42:41 10° WNW 10:43:28 14° W 10:43:28 14° W visible
07 Oct -2.8 09:54:58 10° WNW 09:58:11 42° SW 09:58:31 40° SSW visible
08 Oct -3.7 09:07:32 10° NW 09:10:55 82° SW 09:13:44 14° SE visible
09 Oct -0.8 09:58:32 10° W 10:00:01 12° SW 10:01:27 10° SSW visible
10 Oct -1.3 09:10:08 10° WNW 09:12:49 22° SW 09:15:30 10° S visible
